Location: Red Rock Farm
(35.2100°N, 97.2200°W)
Time: 05:52:37
(UTC-05:00)

ISS - All Passes

Search period start: 24 July 2017 00:00
Search period end: 03 August 2017 00:00
Orbit: 400 x 408 km, 51.6° (Epoch: 24 July)

Date Brightness Start Highest point End Pass type
(mag) Time Alt. Az. Time Alt. Az. Time Alt. Az.
24 Jul - 03:25:21 10° NNE 03:25:59 10° NNE 03:26:37 10° NE visible
24 Jul - 04:59:45 10° NW 05:03:00 64° NE 05:06:13 10° ESE visible
24 Jul - 21:37:11 10° SW 21:40:24 66° NW 21:43:38 10° NE visible
24 Jul - 23:16:42 10° NW 23:17:24 11° NNW 23:18:07 10° N visible
25 Jul - 04:07:39 10° NNW 04:10:38 31° NE 04:13:35 10° ESE visible
25 Jul - 05:44:29 10° W 05:46:56 20° SW 05:49:23 10° S visible
25 Jul - 20:44:58 10° SSW 20:48:08 54° SE 20:51:19 10° ENE daylight
25 Jul - 22:22:43 10° WNW 22:24:50 16° NNW 22:26:57 10° NNE visible
26 Jul - 03:15:46 10° NNW 03:18:10 19° NNE 03:20:33 10° ENE night (unlit)
26 Jul - 04:51:39 10° WNW 04:54:45 42° SW 04:57:51 10° SSE visible
26 Jul - 19:53:13 10° S 19:55:55 24° SE 19:58:38 10° ENE daylight
26 Jul - 21:29:30 10° W 21:32:19 26° NW 21:35:08 10° NNE visible
27 Jul - 02:24:15 10° N 02:25:35 12° NNE 02:26:55 10° NE night (unlit)
27 Jul - 03:59:14 10° NW 04:02:30 85° NE 04:05:45 10° SE night (unlit)
27 Jul - 19:02:30 10° SSE 19:03:46 12° SE 19:05:03 10° ESE daylight
27 Jul - 20:36:44 10° WSW 20:39:53 50° NW 20:43:04 10° NE daylight
28 Jul - 03:07:02 10° NNW 03:10:07 39° NE 03:13:12 10° ESE night (unlit)
28 Jul - 04:44:19 10° W 04:46:20 15° SW 04:48:20 10° SSW night (unlit)
28 Jul - 19:44:19 10° SW 19:47:32 73° SE 19:50:47 10° NE daylight
28 Jul - 21:22:33 10° WNW 21:24:20 14° NNW 21:26:07 10° N visible
29 Jul - 02:15:01 10° NNW 02:17:39 22° NNE 02:20:15 10° E night (unlit)
29 Jul - 03:51:12 10° WNW 03:54:08 32° SW 03:57:04 10° SSE night (unlit)
29 Jul - 18:52:20 10° SSW 18:55:16 32° SE 18:58:12 10° ENE daylight
29 Jul - 20:29:09 10° W 20:31:46 22° NNW 20:34:23 10° NNE daylight
30 Jul - 01:23:17 10° N 01:25:04 14° NNE 01:26:50 10° ENE visible
30 Jul - 02:58:37 10° NW 03:01:51 73° SW 03:05:06 10° SE night (unlit)
30 Jul - 18:01:04 10° SSE 18:03:03 15° SE 18:05:03 10° E daylight
30 Jul - 19:36:11 10° WSW 19:39:16 39° NW 19:42:21 10° NNE daylight
31 Jul - 02:06:19 10° NW 02:09:29 50° NE 02:12:39 10° ESE night (unlit)
31 Jul - 03:44:19 10° WSW 03:45:35 12° SW 03:46:52 10° SSW night (unlit)
31 Jul - 18:43:36 10° SW 18:46:50 85° NW 18:50:06 10° NE daylight
31 Jul - 20:22:24 10° NW 20:23:45 12° NNW 20:25:05 10° N daylight
01 Aug - 01:14:11 10° NNW 01:17:00 26° NE 01:19:48 10° E visible
01 Aug - 02:50:41 10° WNW 02:53:24 24° SW 02:56:06 10° S night (unlit)
01 Aug - 17:51:25 10° SSW 17:54:30 41° SE 17:57:36 10° ENE daylight
01 Aug - 19:28:43 10° WNW 19:31:06 19° NNW 19:33:29 10° NNE daylight
02 Aug - 00:22:18 10° NNW 00:24:25 16° NNE 00:26:32 10° ENE visible
02 Aug - 01:57:56 10° WNW 02:01:06 54° SW 02:04:17 10° SSE night (unlit)
02 Aug - 16:59:48 10° S 17:02:14 19° SE 17:04:40 10° E daylight
02 Aug - 18:35:35 10° WSW 18:38:32 32° NW 18:41:30 10° NNE daylight
02 Aug - 23:31:02 10° NNE 23:31:43 10° NNE 23:32:25 10° NE visible
